| time (UTC) | temp F | wind direction | speed MPH | gust MPH | rain 1hr in | rain 24hr in | rain mn in | humidity % | barometer mb |
| 20260903222238 | 61 | 261 | 3.0 | 8.0 | 0.00 | 0.01 | 0.01 | 96 | 1013.9 |
| 20260903221733 | 62 | 264 | 2.0 | 8.0 | 0.07 | 0.01 | 0.01 | 95 | 1013.8 |
| 20260903221231 | 62 | 252 | 2.0 | 4.0 | 0.07 | 0.01 | 0.01 | 94 | 1013.8 |
| 20260903220730 | 63 | 315 | 3.0 | 7.0 | 0.00 | 0.00 | 0.00 | 91 | 1013.8 |
| 20260903220225 | 65 | 273 | 6.0 | 8.0 | 0.00 | 0.00 | 0.00 | 86 | 1013.7 |
| 20260903215718 | 65 | 265 | 2.0 | 5.0 | 0.00 | 0.00 | 0.00 | 84 | 1013.6 |
| 20260903215214 | 66 | 262 | 7.0 | 8.0 | 0.00 | 0.00 | 0.00 | 81 | 1013.5 |
| 20260903214712 | 66 | 256 | 1.0 | 8.0 | 0.00 | 0.00 | 0.00 | 83 | 1013.5 |
| 20260903214209 | 66 | 259 | 1.0 | 7.0 | 0.00 | 0.00 | 0.00 | 83 | 1013.5 |
| 20260903213703 | 66 | 260 | 8.0 | 12.0 | 0.00 | 0.00 | 0.00 | 83 | 1013.6 |
| 20260903213158 | 66 | 243 | 3.0 | 7.0 | 0.00 | 0.00 | 0.00 | 85 | 1013.6 |
| 20260903212654 | 66 | 252 | 0.0 | 3.0 | 0.00 | 0.00 | 0.00 | 87 | 1013.6 |
| 20260903212150 | 66 | 280 | 1.0 | 5.0 | 0.00 | 0.00 | 0.00 | 87 | 1013.6 |
| 20260903211649 | 65 | 261 | 3.0 | 4.0 | 0.00 | 0.00 | 0.00 | 87 | 1013.5 |
| 20260903211146 | 65 | 284 | 3.0 | 11.0 | 0.00 | 0.00 | 0.00 | 87 | 1013.6 |
| 20260903210641 | 66 | 225 | 4.0 | 5.0 | 0.00 | 0.00 | 0.00 | 88 | 1013.6 |
| 20260903210137 | 66 | 281 | 2.0 | 3.0 | 0.00 | 0.00 | 0.00 | 91 | 1013.6 |
| 20260903205631 | 66 | 255 | 7.0 | 10.0 | 0.00 | 0.00 | 0.00 | 86 | 1013.6 |
| 20260903205130 | 66 | 259 | 0.0 | 4.0 | 0.00 | 0.00 | 0.00 | 91 | 1013.8 |
| 20260903204626 | 66 | 280 | 2.0 | 4.0 | 0.00 | 0.00 | 0.00 | 91 | 1013.7 |
| 20260903204122 | 66 | 249 | 4.0 | 8.0 | 0.00 | 0.00 | 0.00 | 94 | 1013.7 |
| 20260903203617 | 65 | 266 | 1.0 | 4.0 | 0.00 | 0.00 | 0.00 | 98 | 1013.8 |
| 20260903203112 | 64 | 257 | 0.0 | 5.0 | 0.00 | 0.00 | 0.00 | 99 | 1013.7 |
| 20260903202607 | 64 | 267 | 2.0 | 10.0 | 0.00 | 0.00 | 0.00 | 99 | 1013.8 |
| 20260903202103 | 63 | 227 | 3.0 | 4.0 | 0.00 | 0.00 | 0.00 | 99 | 1013.8 |
| 20260903201557 | 63 | 252 | 2.0 | 7.0 | 0.00 | 0.00 | 0.00 | 99 | 1013.9 |
| 20260903201056 | 64 | 255 | 3.0 | 4.0 | 0.00 | 0.00 | 0.00 | 99 | 1014.0 |
| 20260903200551 | 64 | 241 | 5.0 | 11.0 | 0.00 | 0.00 | 0.00 | 99 | 1014.0 |
| 20260903200046 | 63 | 244 | 2.0 | 4.0 | 0.00 | 0.00 | 0.00 | 99 | 1014.3 |
| 20260903195542 | 62 | 245 | 4.0 | 5.0 | 0.00 | 0.00 | 0.00 | 99 | 1014.2 |
| 20260903195037 | 62 | 249 | 9.0 | 14.0 | 0.00 | 0.00 | 0.00 | 99 | 1014.3 |
| 20260903194527 | 63 | 251 | 1.0 | 4.0 | 0.00 | 0.00 | 0.00 | 99 | 1014.2 |
| 20260903194022 | 63 | 231 | 2.0 | 5.0 | 0.00 | 0.00 | 0.00 | 99 | 1014.4 |
| 20260903193518 | 62 | 238 | 7.0 | 11.0 | 0.00 | 0.00 | 0.00 | 99 | 1014.3 |
| 20260903193013 | 62 | 256 | 3.0 | 7.0 | 0.00 | 0.00 | 0.00 | 99 | 1014.4 |
| 20260903192510 | 62 | 274 | 5.0 | 5.0 | 0.00 | 0.00 | 0.00 | 99 | 1014.4 |
| 20260903192011 | 62 | 273 | 2.0 | 11.0 | 0.00 | 0.00 | 0.00 | 99 | 1014.5 |
| 20260903191507 | 62 | 252 | 7.0 | 10.0 | 0.00 | 0.00 | 0.00 | 99 | 1014.6 |
| 20260903191007 | 62 | 263 | 5.0 | 10.0 | 0.00 | 0.00 | 0.00 | 99 | 1014.6 |
| 20260903190501 | 62 | 244 | 2.0 | 4.0 | 0.00 | 0.00 | 0.00 | 99 | 1014.7 |
| 20260903190000 | 62 | 262 | 3.0 | 4.0 | 0.00 | 0.00 | 0.00 | 99 | 1014.5 |
| 20260903185456 | 62 | 266 | 3.0 | 5.0 | 0.00 | 0.00 | 0.00 | 99 | 1014.7 |
| 20260903184950 | 62 | 271 | 0.0 | 5.0 | 0.00 | 0.00 | 0.00 | 99 | 1014.7 |
| 20260903184447 | 62 | 251 | 1.0 | 4.0 | 0.00 | 0.00 | 0.00 | 99 | 1014.7 |
| 20260903183941 | 62 | 243 | 1.0 | 4.0 | 0.00 | 0.00 | 0.00 | 99 | 1014.7 |
| 20260903183436 | 61 | 209 | 1.0 | 5.0 | 0.00 | 0.00 | 0.00 | 99 | 1014.6 |
| 20260903182935 | 61 | 275 | 2.0 | 3.0 | 0.00 | 0.00 | 0.00 | 99 | 1014.8 |
| 20260903182434 | 61 | 224 | 3.0 | 4.0 | 0.00 | 0.00 | 0.00 | 99 | 1014.7 |
| 20260903181930 | 61 | 240 | 1.0 | 4.0 | 0.00 | 0.00 | 0.00 | 99 | 1014.8 |
| 20260903181424 | 61 | 273 | 3.0 | 7.0 | 0.00 | 0.00 | 0.00 | 99 | 1014.7 |
| 20260903180923 | 62 | 263 | 1.0 | 3.0 | 0.00 | 0.00 | 0.00 | 99 | 1014.7 |
| 20260903180419 | 61 | 227 | 1.0 | 4.0 | 0.00 | 0.00 | 0.00 | 99 | 1014.7 |
| 20260903175918 | 61 | 217 | 1.0 | 4.0 | 0.00 | 0.00 | 0.00 | 99 | 1014.6 |
| 20260903175413 | 62 | 262 | 0.0 | 1.0 | 0.00 | 0.00 | 0.00 | 99 | 1014.6 |
| 20260903174908 | 61 | 255 | 0.0 | 5.0 | 0.00 | 0.00 | 0.00 | 99 | 1014.5 |
| 20260903174403 | 61 | 230 | 4.0 | 5.0 | 0.00 | 0.00 | 0.00 | 99 | 1014.6 |
| 20260903173902 | 61 | 252 | 0.0 | 3.0 | 0.00 | 0.00 | 0.00 | 99 | 1014.6 |
| 20260903173357 | 61 | 269 | 4.0 | 5.0 | 0.00 | 0.00 | 0.00 | 99 | 1014.6 |
| 20260903172853 | 61 | 264 | 3.0 | 4.0 | 0.00 | 0.00 | 0.00 | 99 | 1014.6 |
| 20260903172348 | 61 | 235 | 3.0 | 4.0 | 0.00 | 0.00 | 0.00 | 99 | 1014.6 |
| 20260903171843 | 61 | 222 | 3.0 | 7.0 | 0.00 | 0.00 | 0.00 | 99 | 1014.6 |
| 20260903171338 | 61 | 219 | 1.0 | 3.0 | 0.00 | 0.00 | 0.00 | 99 | 1014.6 |
| 20260903170838 | 61 | 258 | 1.0 | 4.0 | 0.00 | 0.00 | 0.00 | 99 | 1014.6 |
| 20260903170333 | 61 | 255 | 0.0 | 5.0 | 0.00 | 0.00 | 0.00 | 99 | 1014.4 |
| 20260903165831 | 61 | 192 | 2.0 | 4.0 | 0.00 | 0.00 | 0.00 | 99 | 1014.5 |
| 20260903165331 | 61 | 231 | 2.0 | 4.0 | 0.00 | 0.00 | 0.00 | 99 | 1014.4 |
| 20260903164826 | 61 | 222 | 4.0 | 7.0 | 0.00 | 0.00 | 0.00 | 99 | 1014.6 |
| 20260903164321 | 61 | 244 | 2.0 | 4.0 | 0.00 | 0.00 | 0.00 | 99 | 1014.6 |
| 20260903163820 | 61 | 255 | 1.0 | 3.0 | 0.00 | 0.00 | 0.00 | 99 | 1014.5 |
| 20260903163318 | 61 | 224 | 4.0 | 5.0 | 0.00 | 0.00 | 0.00 | 99 | 1014.6 |
| 20260903162813 | 61 | 191 | 0.0 | 3.0 | 0.00 | 0.00 | 0.00 | 99 | 1014.6 |
| 20260903162309 | 61 | 278 | 1.0 | 4.0 | 0.00 | 0.00 | 0.00 | 99 | 1014.4 |
| 20260903161804 | 61 | 222 | 1.0 | 1.0 | 0.00 | 0.00 | 0.00 | 99 | 1014.6 |
| 20260903161300 | 61 | 222 | 0.0 | 3.0 | 0.00 | 0.00 | 0.00 | 99 | 1014.6 |
| 20260903160755 | 61 | 259 | 0.0 | 3.0 | 0.00 | 0.00 | 0.00 | 99 | 1014.7 |
| 20260903160254 | 61 | 241 | 1.0 | 3.0 | 0.00 | 0.00 | 0.00 | 99 | 1014.8 |
| 20260903155752 | 61 | 247 | 0.0 | 3.0 | 0.00 | 0.00 | 0.00 | 99 | 1014.6 |
| 20260903155248 | 61 | 284 | 0.0 | 5.0 | 0.00 | 0.00 | 0.00 | 98 | 1014.7 |
| 20260903154743 | 61 | 232 | 3.0 | 5.0 | 0.00 | 0.00 | 0.00 | 98 | 1014.6 |
| 20260903154239 | 61 | 247 | 2.0 | 4.0 | 0.00 | 0.00 | 0.00 | 98 | 1014.8 |
| 20260903153735 | 61 | 244 | 3.0 | 3.0 | 0.00 | 0.00 | 0.00 | 97 | 1014.9 |
| 20260903153231 | 61 | 267 | 1.0 | 5.0 | 0.00 | 0.00 | 0.00 | 97 | 1015.0 |
| 20260903152727 | 61 | 234 | 0.0 | 1.0 | 0.00 | 0.00 | 0.00 | 96 | 1014.9 |
| 20260903152223 | 61 | 259 | 1.0 | 5.0 | 0.00 | 0.00 | 0.00 | 96 | 1014.9 |
| 20260903151722 | 61 | 262 | 0.0 | 5.0 | 0.00 | 0.00 | 0.00 | 96 | 1015.0 |
| 20260903151218 | 61 | 267 | 0.0 | 5.0 | 0.00 | 0.00 | 0.00 | 96 | 1014.7 |
| 20260903150713 | 61 | 268 | 3.0 | 5.0 | 0.00 | 0.00 | 0.00 | 96 | 1014.7 |
| 20260903150208 | 61 | 259 | 2.0 | 8.0 | 0.00 | 0.00 | 0.00 | 96 | 1014.7 |
| 20260903145707 | 61 | 247 | 0.0 | 0.0 | 0.00 | 0.00 | 0.00 | 96 | 1014.8 |
| 20260903145203 | 61 | 219 | 0.0 | 0.0 | 0.00 | 0.00 | 0.00 | 96 | 1014.7 |
| 20260903144701 | 61 | 282 | 0.0 | 0.0 | 0.00 | 0.00 | 0.00 | 97 | 1014.8 |
| 20260903144157 | 61 | 257 | 0.0 | 0.0 | 0.00 | 0.00 | 0.00 | 97 | 1014.7 |
| 20260903143653 | 60 | 273 | 0.0 | 0.0 | 0.00 | 0.00 | 0.00 | 97 | 1014.7 |
| 20260903143149 | 60 | 246 | 0.0 | 0.0 | 0.00 | 0.00 | 0.00 | 97 | 1014.7 |
| 20260903142644 | 60 | 253 | 0.0 | 0.0 | 0.00 | 0.00 | 0.00 | 98 | 1014.6 |
| 20260903142141 | 60 | 251 | 0.0 | 0.0 | 0.00 | 0.00 | 0.00 | 98 | 1014.5 |
| 20260903141636 | 60 | 272 | 0.0 | 0.0 | 0.00 | 0.00 | 0.00 | 98 | 1014.6 |
| 20260903141131 | 60 | 262 | 0.0 | 0.0 | 0.00 | 0.00 | 0.00 | 98 | 1014.6 |
| 20260903140627 | 60 | 143 | 0.0 | 0.0 | 0.00 | 0.00 | 0.00 | 99 | 1014.5 |
| 20260903140122 | 60 | 253 | 0.0 | 0.0 | 0.00 | 0.00 | 0.00 | 99 | 1014.6 |
| 20260903135618 | 60 | 282 | 0.0 | 0.0 | 0.00 | 0.00 | 0.00 | 99 | 1014.5 |
| 20260903135113 | 60 | 250 | 0.0 | 0.0 | 0.00 | 0.00 | 0.00 | 99 | 1014.4 |
| 20260903134611 | 60 | 266 | 0.0 | 0.0 | 0.00 | 0.00 | 0.00 | 99 | 1014.5 |
| 20260903134107 | 60 | 260 | 0.0 | 0.0 | 0.00 | 0.00 | 0.00 | 99 | 1014.4 |
| 20260903133604 | 60 | 276 | 0.0 | 0.0 | 0.00 | 0.00 | 0.00 | 99 | 1014.5 |
| 20260903133100 | 60 | 270 | 0.0 | 0.0 | 0.00 | 0.00 | 0.00 | 99 | 1014.4 |
| 20260903132555 | 60 | 277 | 0.0 | 0.0 | 0.00 | 0.00 | 0.00 | 99 | 1014.4 |
| 20260903132051 | 60 | 250 | 0.0 | 0.0 | 0.00 | 0.00 | 0.00 | 99 | 1014.6 |
| 20260903131550 | 59 | 261 | 0.0 | 0.0 | 0.00 | 0.00 | 0.00 | 99 | 1014.6 |
| 20260903131049 | 59 | 249 | 0.0 | 0.0 | 0.00 | 0.00 | 0.00 | 99 | 1014.6 |
| 20260903130543 | 59 | 268 | 0.0 | 0.0 | 0.00 | 0.00 | 0.00 | 99 | 1014.6 |
| 20260903130038 | 59 | 238 | 0.0 | 0.0 | 0.00 | 0.00 | 0.00 | 99 | 1014.6 |
| 20260903125537 | 59 | 274 | 0.0 | 0.0 | 0.00 | 0.00 | 0.00 | 99 | 1014.7 |
| 20260903125032 | 59 | 257 | 0.0 | 0.0 | 0.00 | 0.00 | 0.00 | 99 | 1014.8 |
| 20260903124527 | 60 | 220 | 0.0 | 0.0 | 0.00 | 0.00 | 0.00 | 99 | 1014.8 |
| 20260903124026 | 60 | 247 | 0.0 | 0.0 | 0.00 | 0.00 | 0.00 | 99 | 1014.9 |
| 20260903123520 | 60 | 267 | 0.0 | 0.0 | 0.00 | 0.00 | 0.00 | 98 | 1015.0 |
| 20260903123020 | 60 | 256 | 0.0 | 0.0 | 0.00 | 0.00 | 0.00 | 98 | 1015.0 |
| 20260903122519 | 60 | 276 | 0.0 | 0.0 | 0.00 | 0.00 | 0.00 | 98 | 1014.8 |
| 20260903122019 | 60 | 249 | 0.0 | 0.0 | 0.00 | 0.00 | 0.00 | 98 | 1014.9 |
| 20260903121514 | 60 | 238 | 0.0 | 0.0 | 0.00 | 0.00 | 0.00 | 98 | 1015.0 |
| 20260903121010 | 60 | 210 | 0.0 | 0.0 | 0.00 | 0.00 | 0.00 | 97 | 1015.1 |
| 20260903120508 | 60 | 243 | 0.0 | 0.0 | 0.00 | 0.00 | 0.00 | 97 | 1015.0 |
| 20260903120003 | 60 | 269 | 0.0 | 0.0 | 0.00 | 0.00 | 0.00 | 97 | 1015.1 |
| 20260903115501 | 60 | 236 | 0.0 | 0.0 | 0.00 | 0.00 | 0.00 | 97 | 1015.1 |
| 20260903114955 | 60 | 265 | 0.0 | 0.0 | 0.00 | 0.00 | 0.00 | 97 | 1015.1 |
| 20260903114451 | 60 | 251 | 0.0 | 0.0 | 0.00 | 0.00 | 0.00 | 97 | 1015.1 |
| 20260903113947 | 60 | 251 | 0.0 | 0.0 | 0.00 | 0.00 | 0.00 | 96 | 1015.0 |
| 20260903113443 | 60 | 251 | 0.0 | 0.0 | 0.00 | 0.00 | 0.00 | 96 | 1015.3 |
| 20260903112938 | 60 | 251 | 0.0 | 0.0 | 0.00 | 0.00 | 0.00 | 96 | 1015.2 |
| 20260903112434 | 60 | 251 | 0.0 | 0.0 | 0.00 | 0.00 | 0.00 | 96 | 1015.2 |
| 20260903111933 | 60 | 256 | 0.0 | 0.0 | 0.00 | 0.00 | 0.00 | 96 | 1015.2 |
| 20260903111432 | 60 | 270 | 0.0 | 0.0 | 0.00 | 0.00 | 0.00 | 96 | 1015.4 |
| 20260903110929 | 60 | 255 | 0.0 | 0.0 | 0.00 | 0.00 | 0.00 | 96 | 1015.3 |
| 20260903110424 | 60 | 256 | 0.0 | 0.0 | 0.00 | 0.00 | 0.00 | 95 | 1015.3 |
| 20260903105919 | 60 | 244 | 0.0 | 0.0 | 0.00 | 0.00 | 0.00 | 95 | 1015.4 |
| 20260903105415 | 60 | 243 | 0.0 | 0.0 | 0.00 | 0.00 | 0.00 | 95 | 1015.5 |
| 20260903104914 | 60 | 243 | 0.0 | 0.0 | 0.00 | 0.00 | 0.00 | 95 | 1015.5 |
| 20260903104408 | 60 | 243 | 0.0 | 0.0 | 0.00 | 0.00 | 0.00 | 95 | 1015.6 |
| 20260903103906 | 60 | 243 | 0.0 | 0.0 | 0.00 | 0.00 | 0.00 | 95 | 1015.4 |
| 20260903103402 | 60 | 242 | 0.0 | 0.0 | 0.00 | 0.00 | 0.00 | 95 | 1015.6 |
| 20260903102901 | 60 | 242 | 0.0 | 0.0 | 0.00 | 0.00 | 0.00 | 95 | 1015.4 |
| 20260903102356 | 59 | 276 | 0.0 | 0.0 | 0.00 | 0.00 | 0.00 | 95 | 1015.5 |
| 20260903101850 | 59 | 247 | 0.0 | 0.0 | 0.00 | 0.00 | 0.00 | 95 | 1015.5 |
| 20260903101345 | 59 | 291 | 0.0 | 0.0 | 0.00 | 0.00 | 0.00 | 95 | 1015.5 |
| 20260903100841 | 59 | 291 | 0.0 | 0.0 | 0.00 | 0.00 | 0.00 | 95 | 1015.7 |
| 20260903100341 | 59 | 291 | 0.0 | 0.0 | 0.00 | 0.00 | 0.00 | 95 | 1015.6 |
| 20260903095838 | 59 | 291 | 0.0 | 0.0 | 0.00 | 0.00 | 0.00 | 95 | 1015.7 |
| 20260903095332 | 59 | 291 | 0.0 | 0.0 | 0.00 | 0.00 | 0.00 | 95 | 1015.8 |
| 20260903094828 | 59 | 291 | 0.0 | 0.0 | 0.00 | 0.00 | 0.00 | 95 | 1015.8 |
| 20260903094322 | 59 | 291 | 0.0 | 0.0 | 0.00 | 0.00 | 0.00 | 95 | 1015.8 |
| 20260903093818 | 59 | 291 | 0.0 | 0.0 | 0.00 | 0.00 | 0.00 | 95 | 1015.9 |
| 20260903093313 | 59 | 291 | 0.0 | 0.0 | 0.00 | 0.00 | 0.00 | 94 | 1015.9 |
| 20260903092813 | 59 | 291 | 0.0 | 0.0 | 0.00 | 0.00 | 0.00 | 94 | 1015.9 |
| 20260903092308 | 59 | 291 | 0.0 | 0.0 | 0.00 | 0.00 | 0.00 | 94 | 1015.9 |
| 20260903091807 | 59 | 291 | 0.0 | 0.0 | 0.00 | 0.00 | 0.00 | 94 | 1016.0 |
| 20260903091301 | 59 | 291 | 0.0 | 0.0 | 0.00 | 0.00 | 0.00 | 94 | 1016.1 |
| 20260903090757 | 59 | 291 | 0.0 | 0.0 | 0.00 | 0.00 | 0.00 | 94 | 1016.1 |
| 20260903090256 | 59 | 291 | 0.0 | 0.0 | 0.00 | 0.00 | 0.00 | 94 | 1016.3 |
| 20260903085755 | 59 | 291 | 0.0 | 0.0 | 0.00 | 0.00 | 0.00 | 95 | 1016.3 |
| 20260903085250 | 59 | 291 | 0.0 | 0.0 | 0.00 | 0.00 | 0.00 | 95 | 1016.2 |
| 20260903084748 | 59 | 291 | 0.0 | 0.0 | 0.00 | 0.00 | 0.00 | 95 | 1016.4 |
| 20260903084243 | 59 | 291 | 0.0 | 0.0 | 0.00 | 0.00 | 0.00 | 95 | 1016.2 |
| 20260903083738 | 59 | 291 | 0.0 | 0.0 | 0.00 | 0.00 | 0.00 | 95 | 1016.3 |
| 20260903083232 | 59 | 291 | 0.0 | 0.0 | 0.00 | 0.00 | 0.00 | 95 | 1016.3 |
| 20260903082732 | 59 | 291 | 0.0 | 0.0 | 0.00 | 0.00 | 0.00 | 96 | 1016.4 |
| 20260903082228 | 59 | 291 | 0.0 | 0.0 | 0.00 | 0.00 | 0.00 | 96 | 1016.4 |
| 20260903081727 | 59 | 291 | 0.0 | 0.0 | 0.00 | 0.00 | 0.00 | 96 | 1016.3 |
| 20260903081224 | 59 | 291 | 0.0 | 0.0 | 0.00 | 0.00 | 0.00 | 96 | 1016.3 |
| 20260903080719 | 59 | 291 | 0.0 | 0.0 | 0.00 | 0.00 | 0.00 | 96 | 1016.3 |
| 20260903080217 | 59 | 291 | 0.0 | 0.0 | 0.00 | 0.00 | 0.00 | 96 | 1016.4 |
| 20260903075715 | 59 | 291 | 0.0 | 0.0 | 0.00 | 0.00 | 0.00 | 96 | 1016.4 |
| 20260903075211 | 59 | 291 | 0.0 | 0.0 | 0.00 | 0.00 | 0.00 | 96 | 1016.4 |
| 20260903074710 | 59 | 291 | 0.0 | 0.0 | 0.00 | 0.00 | 0.00 | 97 | 1016.4 |
| 20260903074206 | 59 | 291 | 0.0 | 0.0 | 0.00 | 0.00 | 0.00 | 97 | 1016.3 |
| 20260903073701 | 59 | 291 | 0.0 | 0.0 | 0.00 | 0.00 | 0.00 | 97 | 1016.5 |
| 20260903073156 | 59 | 291 | 0.0 | 0.0 | 0.00 | 0.00 | 0.00 | 97 | 1016.4 |
| 20260903072652 | 59 | 291 | 0.0 | 0.0 | 0.00 | 0.00 | 0.00 | 97 | 1016.5 |
| 20260903072148 | 59 | 291 | 0.0 | 0.0 | 0.00 | 0.00 | 0.00 | 97 | 1016.6 |
| 20260903071644 | 59 | 291 | 0.0 | 0.0 | 0.00 | 0.00 | 0.00 | 97 | 1016.6 |
| 20260903071140 | 58 | 291 | 0.0 | 0.0 | 0.00 | 0.00 | 0.00 | 97 | 1016.6 |
| 20260903070639 | 58 | 291 | 0.0 | 0.0 | 0.00 | 0.00 | 0.00 | 97 | 1016.6 |
| 20260903070135 | 58 | 291 | 0.0 | 0.0 | 0.00 | 0.00 | 0.00 | 97 | 1016.7 |
| 20260903065634 | 58 | 291 | 0.0 | 0.0 | 0.00 | 0.00 | 0.00 | 97 | 1016.7 |
| 20260903065129 | 58 | 291 | 0.0 | 0.0 | 0.00 | 0.00 | 0.00 | 97 | 1016.7 |
| 20260903064623 | 58 | 291 | 0.0 | 0.0 | 0.00 | 0.00 | 0.00 | 96 | 1016.7 |
| 20260903064119 | 58 | 291 | 0.0 | 0.0 | 0.00 | 0.00 | 0.00 | 96 | 1016.7 |
| 20260903063614 | 58 | 291 | 0.0 | 0.0 | 0.00 | 0.00 | 0.00 | 96 | 1016.8 |
| 20260903063109 | 58 | 291 | 0.0 | 0.0 | 0.00 | 0.00 | 0.00 | 96 | 1016.8 |
| 20260903062605 | 58 | 291 | 0.0 | 0.0 | 0.00 | 0.00 | 0.00 | 96 | 1016.9 |
| 20260903062101 | 58 | 291 | 0.0 | 0.0 | 0.00 | 0.00 | 0.00 | 96 | 1016.9 |
| 20260903061556 | 59 | 291 | 0.0 | 0.0 | 0.00 | 0.00 | 0.00 | 96 | 1016.8 |
| 20260903061055 | 59 | 291 | 0.0 | 0.0 | 0.00 | 0.00 | 0.00 | 96 | 1016.9 |
| 20260903060555 | 59 | 291 | 0.0 | 0.0 | 0.00 | 0.00 | 0.00 | 96 | 1016.9 |
| 20260903060050 | 59 | 291 | 0.0 | 0.0 | 0.00 | 0.00 | 0.00 | 96 | 1017.0 |
| 20260903055548 | 58 | 291 | 0.0 | 0.0 | 0.00 | 0.00 | 0.00 | 96 | 1017.0 |
| 20260903055047 | 58 | 291 | 0.0 | 0.0 | 0.00 | 0.00 | 0.00 | 96 | 1017.0 |
| 20260903054542 | 58 | 291 | 0.0 | 0.0 | 0.00 | 0.00 | 0.00 | 96 | 1017.0 |
| 20260903054038 | 58 | 291 | 0.0 | 0.0 | 0.00 | 0.00 | 0.00 | 96 | 1016.9 |
| 20260903053538 | 58 | 292 | 0.0 | 0.0 | 0.00 | 0.00 | 0.00 | 96 | 1017.0 |
| 20260903053034 | 58 | 290 | 0.0 | 0.0 | 0.00 | 0.00 | 0.00 | 96 | 1017.2 |
| 20260903052530 | 58 | 290 | 0.0 | 0.0 | 0.00 | 0.00 | 0.00 | 96 | 1017.1 |
| 20260903052026 | 58 | 290 | 0.0 | 0.0 | 0.00 | 0.00 | 0.00 | 96 | 1017.0 |
| 20260903051520 | 58 | 289 | 0.0 | 0.0 | 0.00 | 0.00 | 0.00 | 96 | 1017.2 |
| 20260903051016 | 58 | 289 | 0.0 | 0.0 | 0.00 | 0.00 | 0.00 | 96 | 1017.2 |
| 20260903050514 | 58 | 289 | 0.0 | 0.0 | 0.00 | 0.00 | 0.00 | 96 | 1017.2 |
| 20260903050010 | 58 | 289 | 0.0 | 0.0 | 0.00 | 0.00 | 0.00 | 96 | 1017.2 |
| 20260903045509 | 58 | 283 | 0.0 | 0.0 | 0.00 | 0.00 | 0.00 | 95 | 1017.3 |
| 20260903045006 | 58 | 282 | 0.0 | 0.0 | 0.00 | 0.00 | 0.00 | 95 | 1017.1 |
| 20260903044502 | 58 | 281 | 0.0 | 0.0 | 0.00 | 0.00 | 0.00 | 95 | 1017.3 |
| 20260903043957 | 58 | 281 | 0.0 | 0.0 | 0.00 | 0.00 | 0.00 | 95 | 1017.2 |
| 20260903043453 | 58 | 281 | 0.0 | 0.0 | 0.00 | 0.00 | 0.00 | 95 | 1017.2 |
| 20260903042951 | 59 | 274 | 0.0 | 0.0 | 0.00 | 0.00 | 0.00 | 95 | 1017.3 |
| 20260903042447 | 59 | 273 | 0.0 | 0.0 | 0.00 | 0.00 | 0.00 | 94 | 1017.3 |
| 20260903041943 | 59 | 273 | 0.0 | 0.0 | 0.00 | 0.00 | 0.00 | 94 | 1017.2 |
| 20260903041439 | 59 | 243 | 0.0 | 0.0 | 0.00 | 0.00 | 0.00 | 94 | 1017.2 |
| 20260903040935 | 59 | 243 | 0.0 | 0.0 | 0.00 | 0.00 | 0.00 | 94 | 1017.3 |
| 20260903040433 | 59 | 243 | 0.0 | 0.0 | 0.00 | 0.00 | 0.00 | 94 | 1017.2 |
| 20260903035929 | 59 | 242 | 0.0 | 0.0 | 0.00 | 0.00 | 0.00 | 94 | 1017.2 |
| 20260903035426 | 59 | 247 | 0.0 | 3.0 | 0.00 | 0.00 | 0.00 | 94 | 1017.0 |
| 20260903034926 | 60 | 249 | 0.0 | 0.0 | 0.00 | 0.00 | 0.00 | 93 | 1017.0 |
| 20260903034420 | 60 | 260 | 2.0 | 5.0 | 0.00 | 0.00 | 0.00 | 93 | 1017.1 |
| 20260903033916 | 60 | 261 | 0.0 | 4.0 | 0.00 | 0.00 | 0.00 | 92 | 1017.0 |
| 20260903033411 | 60 | 233 | 3.0 | 4.0 | 0.00 | 0.00 | 0.00 | 91 | 1016.8 |
| 20260903032906 | 60 | 264 | 3.0 | 5.0 | 0.00 | 0.00 | 0.00 | 91 | 1016.9 |
| 20260903032402 | 60 | 252 | 4.0 | 5.0 | 0.00 | 0.00 | 0.00 | 91 | 1016.7 |
| 20260903031901 | 60 | 253 | 1.0 | 1.0 | 0.00 | 0.00 | 0.00 | 90 | 1016.7 |
| 20260903031401 | 60 | 256 | 1.0 | 5.0 | 0.00 | 0.00 | 0.00 | 90 | 1016.7 |
| 20260903030856 | 60 | 260 | 0.0 | 0.0 | 0.00 | 0.00 | 0.00 | 89 | 1016.5 |
| 20260903030352 | 60 | 265 | 2.0 | 4.0 | 0.00 | 0.00 | 0.00 | 89 | 1016.5 |
| 20260903025848 | 61 | 260 | 0.0 | 1.0 | 0.00 | 0.00 | 0.00 | 88 | 1016.6 |
| 20260903025343 | 61 | 273 | 3.0 | 7.0 | 0.00 | 0.00 | 0.00 | 88 | 1016.6 |
| 20260903024838 | 61 | 264 | 0.0 | 3.0 | 0.00 | 0.00 | 0.00 | 87 | 1016.5 |
| 20260903024337 | 61 | 243 | 3.0 | 5.0 | 0.00 | 0.00 | 0.00 | 86 | 1016.7 |
| 20260903023833 | 62 | 253 | 0.0 | 3.0 | 0.00 | 0.00 | 0.00 | 85 | 1016.5 |
| 20260903023328 | 62 | 259 | 4.0 | 7.0 | 0.00 | 0.00 | 0.00 | 84 | 1016.7 |
| 20260903022824 | 62 | 246 | 4.0 | 7.0 | 0.00 | 0.00 | 0.00 | 83 | 1016.7 |
| 20260903022323 | 63 | 239 | 3.0 | 7.0 | 0.00 | 0.00 | 0.00 | 81 | 1016.6 |
| 20260903021816 | 64 | 268 | 3.0 | 5.0 | 0.00 | 0.00 | 0.00 | 79 | 1016.6 |
| 20260903021312 | 64 | 235 | 5.0 | 7.0 | 0.00 | 0.00 | 0.00 | 79 | 1016.7 |
| 20260903020806 | 65 | 254 | 6.0 | 10.0 | 0.00 | 0.00 | 0.00 | 78 | 1016.5 |
| 20260903020302 | 64 | 257 | 5.0 | 10.0 | 0.00 | 0.00 | 0.00 | 79 | 1016.6 |
| 20260903015756 | 65 | 234 | 5.0 | 11.0 | 0.00 | 0.00 | 0.00 | 79 | 1016.7 |
| 20260903015252 | 66 | 268 | 3.0 | 5.0 | 0.00 | 0.00 | 0.00 | 76 | 1016.8 |
| 20260903014747 | 66 | 261 | 3.0 | 8.0 | 0.00 | 0.00 | 0.00 | 77 | 1016.7 |
| 20260903014246 | 66 | 250 | 3.0 | 8.0 | 0.00 | 0.00 | 0.00 | 78 | 1016.7 |
| 20260903013741 | 66 | 296 | 6.0 | 7.0 | 0.00 | 0.00 | 0.00 | 76 | 1016.8 |
| 20260903013240 | 66 | 259 | 9.0 | 14.0 | 0.00 | 0.00 | 0.00 | 75 | 1016.8 |
| 20260903012740 | 65 | 268 | 7.0 | 11.0 | 0.00 | 0.00 | 0.00 | 76 | 1016.9 |
| 20260903012239 | 67 | 250 | 3.0 | 8.0 | 0.00 | 0.00 | 0.00 | 74 | 1016.9 |
| 20260903011733 | 67 | 249 | 4.0 | 7.0 | 0.00 | 0.00 | 0.00 | 71 | 1017.0 |
| 20260903011227 | 68 | 258 | 4.0 | 11.0 | 0.00 | 0.00 | 0.00 | 70 | 1016.9 |
| 20260903010718 | 68 | 249 | 5.0 | 8.0 | 0.00 | 0.00 | 0.00 | 67 | 1016.8 |
| 20260903010217 | 69 | 252 | 2.0 | 8.0 | 0.00 | 0.00 | 0.00 | 67 | 1016.7 |
| 20260903005717 | 69 | 271 | 5.0 | 11.0 | 0.00 | 0.00 | 0.00 | 68 | 1016.8 |
| 20260903005211 | 69 | 273 | 6.0 | 10.0 | 0.00 | 0.00 | 0.00 | 67 | 1016.7 |
| 20260903004707 | 71 | 263 | 4.0 | 8.0 | 0.00 | 0.00 | 0.00 | 65 | 1016.6 |
| 20260903004203 | 69 | 269 | 3.0 | 7.0 | 0.00 | 0.00 | 0.00 | 64 | 1016.6 |
| 20260903003657 | 69 | 313 | 5.0 | 11.0 | 0.00 | 0.00 | 0.00 | 65 | 1016.6 |
| 20260903003152 | 69 | 256 | 6.0 | 12.0 | 0.00 | 0.00 | 0.00 | 64 | 1016.8 |
| 20260903002648 | 69 | 243 | 8.0 | 10.0 | 0.00 | 0.00 | 0.00 | 64 | 1016.7 |
| 20260903002142 | 69 | 256 | 5.0 | 10.0 | 0.00 | 0.00 | 0.00 | 65 | 1016.7 |
| 20260903001636 | 69 | 245 | 2.0 | 12.0 | 0.00 | 0.00 | 0.00 | 66 | 1016.8 |
| 20260903001131 | 71 | 242 | 4.0 | 10.0 | 0.00 | 0.00 | 0.00 | 63 | 1016.9 |
| 20260903000626 | 69 | 259 | 12.0 | 12.0 | 0.00 | 0.00 | 0.00 | 61 | 1016.8 |
| 20260903000120 | 70 | 267 | 5.0 | 12.0 | 0.00 | 0.00 | 0.00 | 62 | 1016.9 |
| 20260902235619 | 71 | 275 | 2.0 | 12.0 | 0.00 | 0.00 | 0.00 | 60 | 1016.9 |
| 20260902235114 | 71 | 240 | 5.0 | 10.0 | 0.00 | 0.00 | 0.00 | 60 | 1016.9 |
| 20260902234608 | 69 | 268 | 7.0 | 10.0 | 0.00 | 0.00 | 0.00 | 64 | 1016.9 |
| 20260902234107 | 69 | 226 | 4.0 | 15.0 | 0.00 | 0.00 | 0.00 | 64 | 1017.0 |
| 20260902233602 | 71 | 239 | 6.0 | 7.0 | 0.00 | 0.00 | 0.00 | 59 | 1017.0 |
| 20260902233056 | 70 | 270 | 8.0 | 12.0 | 0.00 | 0.00 | 0.00 | 62 | 1016.9 |
| 20260902232556 | 69 | 260 | 10.0 | 16.0 | 0.00 | 0.00 | 0.00 | 63 | 1017.0 |
| 20260902232050 | 70 | 239 | 7.0 | 11.0 | 0.00 | 0.00 | 0.00 | 62 | 1017.0 |
| 20260902231544 | 70 | 260 | 7.0 | 14.0 | 0.00 | 0.00 | 0.00 | 63 | 1017.1 |
| 20260902231038 | 71 | 233 | 4.0 | 11.0 | 0.00 | 0.00 | 0.00 | 61 | 1017.1 |
| 20260902230533 | 72 | 251 | 9.0 | 12.0 | 0.00 | 0.00 | 0.00 | 59 | 1017.1 |
| 20260902230032 | 71 | 264 | 5.0 | 11.0 | 0.00 | 0.00 | 0.00 | 59 | 1017.1 |
| 20260902225528 | 72 | 234 | 6.0 | 12.0 | 0.00 | 0.00 | 0.00 | 61 | 1017.2 |
| 20260902225027 | 72 | 242 | 5.0 | 12.0 | 0.00 | 0.00 | 0.00 | 59 | 1017.1 |
| 20260902224526 | 71 | 272 | 9.0 | 12.0 | 0.00 | 0.00 | 0.00 | 60 | 1017.2 |
| 20260902224022 | 71 | 265 | 5.0 | 12.0 | 0.00 | 0.00 | 0.00 | 63 | 1017.2 |
| 20260902223518 | 72 | 277 | 6.0 | 14.0 | 0.00 | 0.00 | 0.00 | 59 | 1017.3 |
| 20260902223017 | 71 | 241 | 6.0 | 11.0 | 0.00 | 0.00 | 0.00 | 62 | 1017.1 |